This is the latest recevied weather packets stored in our database for station/object EA1ZE. If no packets are shown the sender has not sent any weather packets the latest 10 day(s).
| Time | Temp. | Humidity | Pressure | Rain* | Wind** | Luminosity | Snow |
|---|---|---|---|---|---|---|---|
| 1787661919 | 22.78° C | 53% | 1013.4 hPa | 0 mm | - | - | - |
| 1787661019 | 22.78° C | 54% | 1013.4 hPa | 0 mm | - | - | - |
| 1787660127 | 22.78° C | 54% | 1013.3 hPa | 0 mm | - | - | - |
| 1787659213 | 22.22° C | 56% | 1013.4 hPa | 0 mm | - | - | - |
| 1787658318 | 21.67° C | 60% | 1013.6 hPa | 0 mm | - | - | - |
| 1787657414 | 21.11° C | 61% | 1013.6 hPa | 0 mm | - | - | - |
| 1787656509 | 21.11° C | 62% | 1013.7 hPa | 0 mm | - | - | - |
| 1787655617 | 21.11° C | 65% | 1013.8 hPa | 0 mm | - | - | - |
| 1787654703 | 20.56° C | 65% | 1013.9 hPa | 0 mm | - | - | - |
| 1787653801 | 20.56° C | 67% | 1013.9 hPa | 0 mm | - | - | - |
| 1787652960 | 20.56° C | 68% | 1013.9 hPa | 0 mm | - | - | - |
| 1787652900 | 20.56° C | 68% | 1013.9 hPa | 0 mm | - | - | - |
| 1787652059 | 20° C | 69% | 1013.7 hPa | 0 mm | - | - | - |
| 1787651160 | 20° C | 67% | 1013.9 hPa | 0 mm | - | - | - |
| 1787650255 | 20° C | 70% | 1013.6 hPa | 0 mm | - | - | - |
| 1787649355 | 19.44° C | 72% | 1013.5 hPa | 0 mm | - | - | - |
| 1787648451 | 18.89° C | 75% | 1013.4 hPa | 0 mm | - | - | - |
| 1787647551 | 19.44° C | 75% | 1013.6 hPa | 0 mm | - | - | - |
| 1787646652 | 18.89° C | 76% | 1013.5 hPa | 0 mm | - | - | - |
| 1787645747 | 18.89° C | 78% | 1013.2 hPa | 0 mm | - | - | - |
| 1787644847 | 18.89° C | 77% | 1013.2 hPa | 0 mm | - | - | - |
| 1787643943 | 18.33° C | 78% | 1013.2 hPa | 0 mm | - | - | - |
| 1787643044 | 17.78° C | 81% | 1013.2 hPa | 0 mm | - | - | - |
| 1787642143 | 17.22° C | 82% | 1013.2 hPa | 0 mm | - | - | - |
| 1787641241 | 16.67° C | 82% | 1013.2 hPa | 0 mm | - | - | - |
* Rain latest hour (hover to see other rain measurements)
** Current wind speed in m/s (hover to see current wind gust speed)